This is the latest recevied weather packets stored in our database for station/object W7PLC. If no packets are shown the sender has not sent any weather packets the latest 10 day(s).
| Time | Temp. | Humidity | Pressure | Rain* | Wind** | Luminosity | Snow |
|---|---|---|---|---|---|---|---|
| 1777837774 | 27.78° C | 43% | 1010.9 hPa | 0 mm | - | 635 W/m² | - |
| 1777837471 | 26.67° C | 45% | 1011 hPa | 0 mm | - | 620 W/m² | - |
| 1777837166 | 27.22° C | 43% | 1010.9 hPa | 0 mm | - | 675 W/m² | - |
| 1777836862 | 26.67° C | 46% | 1010.9 hPa | 0 mm | - | 658 W/m² | - |
| 1777836558 | 26.67° C | 44% | 1011.1 hPa | 0 mm | - | 587 W/m² | - |
| 1777836255 | 27.22° C | 45% | 1011.1 hPa | 0 mm | - | 631 W/m² | - |
| 1777835950 | 26.67° C | 46% | 1011 hPa | 0 mm | - | 681 W/m² | - |
| 1777835648 | 26.67° C | 45% | 1011.1 hPa | 0 mm | - | 655 W/m² | - |
| 1777835344 | 26.11° C | 47% | 1011.5 hPa | 0 mm | - | 647 W/m² | - |
| 1777835042 | 25.56° C | 47% | 1011.2 hPa | 0 mm | - | 639 W/m² | - |
| 1777834738 | 26.11° C | 47% | 1011.4 hPa | 0 mm | - | 609 W/m² | - |
| 1777834434 | 26.11° C | 47% | 1011.4 hPa | 0 mm | - | 632 W/m² | - |
| 1777834134 | 25.56° C | 47% | 1011.5 hPa | 0 mm | - | 666 W/m² | - |
| 1777833830 | 25.56° C | 46% | 1011.4 hPa | 0 mm | - | 654 W/m² | - |
| 1777833526 | 25° C | 47% | 1011.7 hPa | 0 mm | - | 648 W/m² | - |
| 1777833224 | 25° C | 48% | 1011.7 hPa | 0 mm | - | 639 W/m² | - |
| 1777832921 | 25° C | 49% | 1011.9 hPa | 0 mm | - | 638 W/m² | - |
| 1777832620 | 25° C | 48% | 1011.7 hPa | 0 mm | - | 606 W/m² | - |
| 1777832317 | 25° C | 50% | 1011.8 hPa | 0 mm | - | 603 W/m² | - |
| 1777832014 | 23.89° C | 50% | 1011.8 hPa | 0 mm | - | 606 W/m² | - |
| 1777831710 | 24.44° C | 50% | 1011.7 hPa | 0 mm | - | 638 W/m² | - |
| 1777831408 | 24.44° C | 50% | 1011.8 hPa | 0 mm | - | 630 W/m² | - |
| 1777831104 | 23.89° C | 50% | 1011.8 hPa | 0 mm | - | 610 W/m² | - |
| 1777830803 | 23.33° C | 51% | 1011.9 hPa | 0 mm | - | 563 W/m² | - |
| 1777830497 | 23.33° C | 52% | 1011.8 hPa | 0 mm | - | 545 W/m² | - |
* Rain latest hour (hover to see other rain measurements)
** Current wind speed in m/s (hover to see current wind gust speed)